This is the latest recevied weather packets stored in our database for station/object PY2SDN-13. If no packets are shown the sender has not sent any weather packets the latest 10 day(s).
| Time | Temp. | Humidity | Pressure | Rain* | Wind** | Luminosity | Snow |
|---|---|---|---|---|---|---|---|
| 1778013003 | 24.44° C | 26% | 1013.5 hPa | 0 mm | - | 0 W/m² | - |
| 1778012103 | 24.44° C | 26% | 1013.4 hPa | 0 mm | - | 0 W/m² | - |
| 1778011203 | 24.44° C | 26% | 1013.3 hPa | 0 mm | - | 0 W/m² | - |
| 1778010303 | 24.44° C | 26% | 1013.2 hPa | 0 mm | - | 0 W/m² | - |
| 1778009403 | 24.44° C | 26% | 1013.2 hPa | 0 mm | - | 0 W/m² | - |
| 1778008503 | 25° C | 26% | 1013.2 hPa | 0 mm | - | 0 W/m² | - |
| 1778007608 | 25° C | 26% | 1013.1 hPa | 0 mm | - | 0 W/m² | - |
| 1778006703 | 25° C | 26% | 1013.2 hPa | 0 mm | - | 0 W/m² | - |
| 1778005803 | 25° C | 26% | 1013.2 hPa | 0 mm | - | 0 W/m² | - |
| 1778004903 | 25.56° C | 26% | 1013.1 hPa | 0 mm | - | 0 W/m² | - |
| 1778004003 | 26.11° C | 26% | 1013.1 hPa | 0 mm | - | 0 W/m² | - |
| 1778003103 | 27.22° C | 26% | 1013 hPa | 0 mm | - | 0 W/m² | - |
| 1778002203 | 29.44° C | 26% | 1012.9 hPa | 0 mm | - | 0 W/m² | - |
| 1778001303 | 30.56° C | 26% | 1012.9 hPa | 0 mm | - | 0 W/m² | - |
| 1778000404 | 31.11° C | 26% | 1012.9 hPa | 0 mm | - | 0 W/m² | - |
| 1777999504 | 30.56° C | 26% | 1012.9 hPa | 0 mm | - | 0 W/m² | - |
| 1777998604 | 30.56° C | 26% | 1013.1 hPa | 0 mm | - | 0 W/m² | - |
| 1777997704 | 31.11° C | 26% | 1013.3 hPa | 0 mm | - | 0 W/m² | - |
| 1777996804 | 31.11° C | 26% | 1013.4 hPa | 0 mm | - | 0 W/m² | - |
| 1777995904 | 30.56° C | 26% | 1013.6 hPa | 0 mm | - | 0 W/m² | - |
| 1777995004 | 32.78° C | 26% | 1013.5 hPa | 0 mm | - | 0 W/m² | - |
| 1777994105 | 33.89° C | 26% | 1013.6 hPa | 0 mm | - | 0 W/m² | - |
| 1777993204 | 33.33° C | 26% | 1013.4 hPa | 0 mm | - | 0 W/m² | - |
| 1777992304 | 33.33° C | 26% | 1013.7 hPa | 0 mm | - | 0 W/m² | - |
| 1777991404 | 33.33° C | 26% | 1014 hPa | 0 mm | - | 0 W/m² | - |
* Rain latest hour (hover to see other rain measurements)
** Current wind speed in m/s (hover to see current wind gust speed)